QPF
0.00 0.00 0.00 0.01 0.08 0.04 0.00 0.00 0.00 0.00 0.00 0.00 0.00 0.00 0.00 0.00 0.00 0.03 0.01 0.00 0.00 0.00 0.00 0.00 0.01 0.01 0.01 0.01 0.01 0.02 0.02 0.03 0.03 0.03 0.02 0.01 0.01 0.02 0.02 0.02 0.01 0.01 0.01 0.01 0.03 0.04 0.03 0.02 0.04
0.00 0.00 0.00 0.04 0.07 0.01 0.00 0.00 0.00 0.00 0.00 0.00 0.00 0.00 0.00 0.00 0.00 0.00 0.00 0.00 0.00 0.00 0.00 0.01 0.01 0.01 0.02 0.02 0.03 0.05 0.06 0.06 0.05 0.06 0.04 0.02 0.02 0.02 0.02 0.01 0.01 0.00 0.00 0.00 0.01 0.02 0.01 0.01 0.03
0.00 0.00 0.01 0.04 0.01 0.00 0.00 0.00 0.00 0.00 0.00 0.00 0.00 0.00 0.00 0.00 0.00 0.00 0.00 0.00 0.00 0.00 0.01 0.02 0.01 0.02 0.02 0.03 0.05 0.06 0.06 0.06 0.08 0.09 0.05 0.03 0.03 0.03 0.03 0.02 0.01 0.00 0.00 0.00 0.00 0.01 0.01 0.01 0.02
0.00 0.00 0.00 0.01 0.00 0.00 0.00 0.00 0.00 0.00 0.00 0.00 0.00 0.00 0.00 0.00 0.00 0.00 0.00 0.00 0.00 0.00 0.01 0.01 0.01 0.02 0.02 0.03 0.04 0.05 0.05 0.06 0.10 0.11 0.07 0.04 0.03 0.02 0.03 0.02 0.01 0.00 0.00 0.00 0.00 0.01 0.01 0.01 0.01
0.00 0.01 0.03 0.01 0.00 0.00 0.00 0.00 0.00 0.00 0.00 0.00 0.00 0.00 0.00 0.00 0.00 0.00 0.00 0.00 0.00 0.00 0.00 0.01 0.01 0.02 0.02 0.03 0.03 0.04 0.06 0.10 0.13 0.10 0.06 0.04 0.03 0.02 0.02 0.01 0.00 0.00 0.00 0.00 0.00 0.00 0.00 0.01 0.00
0.01 0.02 0.06 0.03 0.00 0.00 0.00 0.00 0.00 0.00 0.00 0.00 0.00 0.00 0.00 0.00 0.00 0.00 0.00 0.00 0.00 0.00 0.00 0.00 0.01 0.01 0.02 0.03 0.02 0.04 0.08 0.12 0.11 0.06 0.03 0.03 0.02 0.01 0.02 0.01 0.00 0.00 0.00 0.00 0.00 0.00 0.01 0.01 0.00
0.07 0.07 0.07 0.03 0.00 0.00 0.00 0.00 0.00 0.00 0.00 0.00 0.00 0.00 0.00 0.00 0.00 0.00 0.00 0.00 0.00 0.00 0.00 0.00 0.00 0.00 0.00 0.01 0.02 0.05 0.09 0.12 0.08 0.03 0.02 0.02 0.01 0.01 0.01 0.00 0.00 0.00 0.00 0.00 0.00 0.00 0.01 0.01 0.00
0.01 0.02 0.02 0.01 0.00 0.00 0.00 0.00 0.00 0.00 0.00 0.00 0.00 0.00 0.00 0.00 0.00 0.00 0.00 0.00 0.00 0.00 0.00 0.00 0.00 0.01 0.01 0.01 0.01 0.03 0.07 0.10 0.06 0.02 0.02 0.01 0.01 0.01 0.00 0.00 0.00 0.00 0.00 0.00 0.00 0.00 0.01 0.00 0.00
0.00 0.01 0.01 0.00 0.00 0.00 0.00 0.00 0.00 0.00 0.00 0.00 0.00 0.00 0.00 0.00 0.00 0.00 0.00 0.00 0.00 0.00 0.00 0.00 0.00 0.01 0.01 0.01 0.01 0.03 0.06 0.07 0.04 0.02 0.01 0.01 0.02 0.01 0.01 0.00 0.00 0.00 0.00 0.00 0.00 0.01 0.00 0.00 0.00
0.00 0.02 0.02 0.01 0.00 0.00 0.00 0.00 0.00 0.00 0.00 0.00 0.00 0.00 0.00 0.00 0.00 0.00 0.00 0.00 0.00 0.00 0.00 0.00 0.00 0.00 0.00 0.02 0.04 0.09 0.09 0.05 0.04 0.03 0.01 0.03 0.04 0.03 0.01 0.00 0.00 0.00 0.00 0.00 0.00 0.00 0.00 0.00 0.00
0.00 0.00 0.00 0.00 0.00 0.00 0.00 0.00 0.00 0.00 0.00 0.00 0.00 0.00 0.00 0.00 0.00 0.00 0.00 0.00 0.00 0.00 0.00 0.00 0.00 0.00 0.00 0.04 0.07 0.09 0.11 0.11 0.14 0.07 0.02 0.02 0.02 0.01 0.01 0.00 0.00 0.00 0.00 0.00 0.00 0.00 0.00 0.00 0.00
0.00 0.00 0.00 0.00 0.00 0.00 0.00 0.00 0.00 0.00 0.00 0.00 0.00 0.00 0.00 0.00 0.00 0.00 0.00 0.00 0.00 0.00 0.00 0.00 0.00 0.00 0.00 0.00 0.02 0.04 0.04 0.05 0.07 0.07 0.01 0.01 0.01 0.01 0.00 0.00 0.00 0.00 0.00 0.00 0.00 0.00 0.00 0.00 0.00
0.00 0.00 0.00 0.00 0.00 0.00 0.00 0.00 0.00 0.00 0.00 0.00 0.00 0.00 0.00 0.00 0.00 0.00 0.00 0.00 0.00 0.00 0.00 0.00 0.00 0.00 0.00 0.00 0.00 0.01 0.02 0.02 0.03 0.05 0.03 0.01 0.00 0.00 0.00 0.00 0.00 0.00 0.00 0.00 0.00 0.00 0.00 0.00 0.00
0.00 0.00 0.00 0.00 0.00 0.00 0.00 0.00 0.00 0.00 0.00 0.00 0.00 0.00 0.00 0.00 0.00 0.00 0.00 0.00 0.00 0.00 0.00 0.00 0.00 0.00 0.00 0.00 0.00 0.00 0.01 0.01 0.02 0.02 0.01 0.00 0.00 0.00 0.00 0.00 0.00 0.00 0.00 0.00 0.00 0.00 0.00 0.00 0.00
0.00 0.00 0.00 0.00 0.00 0.00 0.00 0.00 0.00 0.00 0.00 0.00 0.00 0.00 0.00 0.00 0.00 0.00 0.00 0.00 0.00 0.00 0.00 0.00 0.00 0.00 0.00 0.00 0.00 0.00 0.00 0.01 0.01 0.01 0.00 0.00 0.00 0.00 0.00 0.00 0.00 0.00 0.00 0.00 0.00 0.00 0.00 0.00 0.00
0.00 0.00 0.00 0.00 0.00 0.00 0.00 0.00 0.00 0.00 0.00 0.00 0.00 0.00 0.00 0.00 0.00 0.00 0.00 0.00 0.00 0.00 0.00 0.00 0.00 0.00 0.00 0.00 0.00 0.00 0.01 0.01 0.02 0.02 0.01 0.00 0.00 0.00 0.00 0.00 0.00 0.00 0.00 0.00 0.00 0.00 0.00 0.00 0.00
0.00 0.01 0.00 0.00 0.01 0.00 0.00 0.00 0.00 0.00 0.00 0.00 0.00 0.00 0.00 0.00 0.00 0.00 0.00 0.00 0.00 0.00 0.00 0.00 0.00 0.00 0.00 0.01 0.01 0.02 0.02 0.04 0.06 0.06 0.04 0.01 0.01 0.00 0.00 0.00 0.00 0.00 0.00 0.00 0.00 0.00 0.00 0.01 0.00
0.04 0.01 0.02 0.02 0.03 0.02 0.01 0.00 0.00 0.00 0.00 0.00 0.00 0.00 0.00 0.00 0.00 0.00 0.00 0.00 0.00 0.00 0.00 0.00 0.00 0.00 0.02 0.03 0.06 0.08 0.08 0.10 0.12 0.12 0.11 0.07 0.03 0.01 0.01 0.00 0.00 0.00 0.01 0.01 0.00 0.02 0.04 0.04 0.02
0.02 0.02 0.02 0.05 0.06 0.04 0.02 0.01 0.00 0.00 0.00 0.00 0.00 0.00 0.00 0.00 0.00 0.00 0.00 0.00 0.00 0.00 0.00 0.00 0.00 0.00 0.03 0.06 0.09 0.13 0.17 0.17 0.17 0.16 0.10 0.07 0.04 0.03 0.02 0.01 0.01 0.02 0.03 0.03 0.03 0.09 0.12 0.08 0.03
0.02 0.03 0.04 0.04 0.04 0.03 0.01 0.01 0.00 0.00 0.00 0.00 0.00 0.00 0.00 0.00 0.00 0.00 0.00 0.00 0.00 0.00 0.00 0.00 0.00 0.00 0.01 0.03 0.06 0.10 0.15 0.15 0.14 0.12 0.10 0.08 0.07 0.05 0.03 0.01 0.02 0.04 0.11 0.13 0.11 0.16 0.19 0.12 0.06
0.04 0.05 0.05 0.04 0.03 0.02 0.01 0.00 0.00 0.00 0.00 0.00 0.00 0.00 0.00 0.00 0.00 0.00 0.00 0.00 0.00 0.00 0.00 0.00 0.00 0.00 0.01 0.02 0.04 0.06 0.11 0.14 0.16 0.14 0.15 0.11 0.10 0.08 0.07 0.06 0.05 0.06 0.12 0.16 0.18 0.20 0.24 0.20 0.12
0.05 0.05 0.05 0.05 0.05 0.04 0.03 0.03 0.00 0.00 0.00 0.00 0.00 0.00 0.00 0.00 0.00 0.00 0.00 0.00 0.00 0.00 0.00 0.00 0.00 0.00 0.00 0.01 0.02 0.04 0.07 0.10 0.12 0.14 0.16 0.11 0.10 0.09 0.10 0.09 0.10 0.09 0.12 0.15 0.15 0.14 0.19 0.25 0.23
0.02 0.02 0.03 0.04 0.06 0.06 0.05 0.06 0.02 0.00 0.00 0.00 0.00 0.00 0.00 0.00 0.00 0.00 0.00 0.00 0.00 0.00 0.00 0.00 0.00 0.00 0.00 0.00 0.01 0.03 0.04 0.07 0.07 0.07 0.09 0.10 0.10 0.10 0.11 0.09 0.11 0.12 0.11 0.11 0.15 0.17 0.20 0.22 0.23
0.00 0.01 0.01 0.02 0.03 0.03 0.02 0.04 0.03 0.01 0.01 0.00 0.00 0.00 0.00 0.00 0.00 0.00 0.00 0.00 0.00 0.00 0.00 0.00 0.00 0.00 0.00 0.00 0.00 0.01 0.02 0.02 0.03 0.05 0.08 0.12 0.12 0.11 0.12 0.13 0.14 0.14 0.13 0.12 0.13 0.15 0.20 0.24 0.27
0.00 0.02 0.04 0.05 0.05 0.03 0.01 0.02 0.02 0.01 0.00 0.00 0.00 0.00 0.00 0.00 0.00 0.00 0.00 0.00 0.00 0.00 0.00 0.00 0.00 0.00 0.00 0.00 0.00 0.00 0.00 0.00 0.01 0.02 0.05 0.08 0.11 0.13 0.14 0.14 0.16 0.16 0.13 0.12 0.15 0.16 0.19 0.23 0.27
0.00 0.01 0.04 0.06 0.07 0.04 0.02 0.01 0.00 0.00 0.00 0.00 0.00 0.00 0.00 0.00 0.00 0.00 0.00 0.00 0.00 0.00 0.00 0.00 0.00 0.00 0.00 0.00 0.00 0.00 0.00 0.00 0.01 0.02 0.03 0.05 0.09 0.11 0.11 0.11 0.13 0.14 0.14 0.14 0.15 0.18 0.20 0.21 0.22
0.00 0.00 0.00 0.02 0.02 0.02 0.02 0.01 0.01 0.00 0.00 0.00 0.00 0.00 0.01 0.01 0.00 0.00 0.00 0.00 0.00 0.00 0.00 0.00 0.00 0.00 0.00 0.00 0.00 0.00 0.00 0.00 0.01 0.01 0.02 0.04 0.06 0.06 0.06 0.08 0.09 0.09 0.09 0.10 0.14 0.19 0.23 0.24 0.24
0.00 0.00 0.00 0.02 0.06 0.06 0.02 0.02 0.03 0.03 0.03 0.02 0.02 0.01 0.02 0.02 0.02 0.01 0.00 0.00 0.00 0.00 0.00 0.00 0.00 0.00 0.00 0.00 0.00 0.00 0.00 0.00 0.00 0.01 0.02 0.03 0.04 0.04 0.05 0.07 0.07 0.07 0.09 0.11 0.14 0.17 0.20 0.23 0.23
0.02 0.02 0.03 0.04 0.04 0.08 0.10 0.09 0.06 0.09 0.11 0.10 0.08 0.05 0.05 0.05 0.05 0.04 0.02 0.01 0.00 0.00 0.00 0.00 0.00 0.00 0.00 0.00 0.00 0.00 0.00 0.00 0.00 0.01 0.01 0.01 0.01 0.02 0.03 0.05 0.08 0.08 0.11 0.13 0.14 0.18 0.22 0.23 0.23
0.04 0.07 0.09 0.16 0.14 0.10 0.15 0.14 0.08 0.10 0.10 0.08 0.06 0.03 0.03 0.04 0.05 0.05 0.02 0.01 0.00 0.00 0.00 0.00 0.00 0.00 0.00 0.00 0.00 0.00 0.00 0.00 0.00 0.00 0.00 0.00 0.01 0.01 0.01 0.04 0.07 0.08 0.10 0.11 0.11 0.14 0.20 0.24 0.24
MSLP
1004.23 1004.93 1005.85 1006.85 1007.76 1008.47 1008.88 1008.97 1008.79 1008.42 1008.01 1007.66 1007.45 1007.41 1007.52 1007.70 1007.90 1008.03 1008.08 1008.05 1008.01 1008.02 1008.15 1008.42 1008.84 1009.35 1009.88 1010.34 1010.67 1010.85 1010.91 1010.88 1010.86 1010.90 1011.06 1011.33 1011.68 1012.05 1012.37 1012.59 1012.68 1012.66 1012.55 1012.42 1012.31 1012.25 1012.27 1012.34 1012.43
1004.62 1005.45 1006.41 1007.37 1008.17 1008.70 1008.90 1008.78 1008.41 1007.91 1007.41 1007.03 1006.83 1006.82 1006.96 1007.19 1007.41 1007.57 1007.65 1007.68 1007.70 1007.79 1008.00 1008.36 1008.86 1009.44 1010.01 1010.50 1010.86 1011.05 1011.12 1011.11 1011.10 1011.16 1011.32 1011.57 1011.90 1012.23 1012.52 1012.70 1012.78 1012.75 1012.66 1012.56 1012.49 1012.46 1012.50 1012.57 1012.65
1005.10 1006.01 1006.98 1007.85 1008.48 1008.80 1008.78 1008.45 1007.92 1007.31 1006.76 1006.39 1006.22 1006.27 1006.47 1006.74 1007.00 1007.20 1007.31 1007.38 1007.45 1007.60 1007.87 1008.29 1008.84 1009.46 1010.06 1010.57 1010.95 1011.18 1011.28 1011.31 1011.34 1011.42 1011.58 1011.82 1012.11 1012.39 1012.63 1012.77 1012.82 1012.80 1012.74 1012.68 1012.66 1012.69 1012.76 1012.84 1012.92
1005.64 1006.58 1007.51 1008.25 1008.71 1008.81 1008.58 1008.07 1007.41 1006.74 1006.19 1005.85 1005.74 1005.86 1006.12 1006.44 1006.73 1006.95 1007.09 1007.18 1007.29 1007.47 1007.78 1008.23 1008.80 1009.43 1010.04 1010.57 1010.97 1011.23 1011.38 1011.46 1011.54 1011.66 1011.84 1012.06 1012.32 1012.55 1012.73 1012.83 1012.87 1012.85 1012.83 1012.82 1012.85 1012.93 1013.04 1013.14 1013.22
1006.19 1007.13 1007.97 1008.57 1008.85 1008.76 1008.35 1007.71 1006.97 1006.29 1005.77 1005.50 1005.47 1005.65 1005.96 1006.31 1006.62 1006.85 1006.99 1007.09 1007.22 1007.42 1007.74 1008.20 1008.77 1009.38 1009.98 1010.51 1010.92 1011.22 1011.42 1011.56 1011.70 1011.87 1012.07 1012.29 1012.52 1012.72 1012.86 1012.93 1012.96 1012.95 1012.96 1013.00 1013.08 1013.19 1013.33 1013.44 1013.51
1006.73 1007.62 1008.34 1008.79 1008.89 1008.65 1008.12 1007.41 1006.66 1006.01 1005.57 1005.37 1005.42 1005.65 1005.99 1006.35 1006.65 1006.86 1007.00 1007.10 1007.23 1007.44 1007.77 1008.22 1008.77 1009.36 1009.94 1010.45 1010.86 1011.17 1011.41 1011.62 1011.81 1012.02 1012.26 1012.50 1012.72 1012.90 1013.02 1013.09 1013.11 1013.12 1013.15 1013.22 1013.32 1013.46 1013.59 1013.70 1013.76
1007.21 1008.00 1008.59 1008.88 1008.83 1008.47 1007.88 1007.16 1006.46 1005.89 1005.55 1005.44 1005.55 1005.82 1006.16 1006.50 1006.76 1006.94 1007.06 1007.15 1007.29 1007.51 1007.85 1008.30 1008.83 1009.39 1009.93 1010.41 1010.80 1011.12 1011.39 1011.63 1011.87 1012.13 1012.40 1012.67 1012.91 1013.09 1013.22 1013.29 1013.32 1013.35 1013.39 1013.47 1013.57 1013.69 1013.81 1013.89 1013.92
1007.59 1008.25 1008.69 1008.83 1008.66 1008.22 1007.61 1006.94 1006.32 1005.87 1005.63 1005.62 1005.78 1006.06 1006.38 1006.66 1006.88 1007.01 1007.10 1007.20 1007.34 1007.59 1007.94 1008.40 1008.92 1009.45 1009.95 1010.39 1010.76 1011.07 1011.34 1011.60 1011.88 1012.17 1012.48 1012.78 1013.05 1013.26 1013.41 1013.50 1013.56 1013.59 1013.64 1013.70 1013.78 1013.86 1013.93 1013.97 1013.97
1007.85 1008.36 1008.62 1008.61 1008.34 1007.86 1007.28 1006.68 1006.18 1005.86 1005.74 1005.80 1006.00 1006.28 1006.55 1006.77 1006.92 1007.00 1007.07 1007.17 1007.34 1007.61 1008.00 1008.47 1008.99 1009.50 1009.97 1010.38 1010.72 1011.00 1011.26 1011.53 1011.82 1012.14 1012.48 1012.81 1013.11 1013.36 1013.54 1013.67 1013.74 1013.79 1013.83 1013.87 1013.91 1013.94 1013.95 1013.94 1013.91
1007.97 1008.30 1008.39 1008.25 1007.89 1007.39 1006.85 1006.35 1005.98 1005.78 1005.77 1005.90 1006.13 1006.37 1006.59 1006.74 1006.82 1006.86 1006.91 1007.01 1007.21 1007.53 1007.95 1008.44 1008.97 1009.48 1009.94 1010.32 1010.62 1010.89 1011.13 1011.39 1011.68 1012.01 1012.36 1012.72 1013.05 1013.33 1013.56 1013.72 1013.83 1013.89 1013.93 1013.94 1013.94 1013.92 1013.88 1013.83 1013.79
1007.95 1008.10 1008.03 1007.75 1007.32 1006.82 1006.33 1005.93 1005.68 1005.60 1005.68 1005.86 1006.09 1006.31 1006.47 1006.56 1006.58 1006.57 1006.61 1006.71 1006.94 1007.29 1007.74 1008.27 1008.82 1009.33 1009.78 1010.15 1010.45 1010.70 1010.93 1011.18 1011.46 1011.78 1012.14 1012.50 1012.85 1013.17 1013.43 1013.63 1013.77 1013.86 1013.90 1013.90 1013.87 1013.82 1013.75 1013.69 1013.64
1007.84 1007.82 1007.60 1007.21 1006.73 1006.23 1005.79 1005.48 1005.33 1005.34 1005.48 1005.69 1005.91 1006.09 1006.20 1006.22 1006.19 1006.16 1006.17 1006.28 1006.52 1006.89 1007.37 1007.92 1008.48 1009.01 1009.47 1009.85 1010.16 1010.42 1010.65 1010.90 1011.17 1011.49 1011.82 1012.18 1012.53 1012.86 1013.14 1013.38 1013.55 1013.67 1013.74 1013.76 1013.73 1013.68 1013.61 1013.56 1013.54
1007.71 1007.55 1007.20 1006.73 1006.22 1005.73 1005.33 1005.09 1005.00 1005.06 1005.23 1005.44 1005.63 1005.77 1005.81 1005.79 1005.72 1005.65 1005.65 1005.76 1005.99 1006.36 1006.84 1007.40 1007.97 1008.52 1009.01 1009.43 1009.77 1010.07 1010.33 1010.59 1010.86 1011.15 1011.46 1011.79 1012.12 1012.44 1012.73 1012.99 1013.21 1013.37 1013.48 1013.55 1013.56 1013.55 1013.52 1013.50 1013.53
1007.66 1007.40 1006.98 1006.47 1005.94 1005.47 1005.11 1004.89 1004.82 1004.88 1005.02 1005.19 1005.32 1005.40 1005.40 1005.33 1005.23 1005.14 1005.12 1005.21 1005.42 1005.77 1006.23 1006.76 1007.33 1007.90 1008.43 1008.91 1009.32 1009.68 1010.00 1010.29 1010.56 1010.83 1011.11 1011.39 1011.68 1011.97 1012.25 1012.53 1012.78 1013.01 1013.19 1013.33 1013.42 1013.48 1013.52 1013.57 1013.66
1007.78 1007.48 1007.05 1006.55 1006.04 1005.59 1005.23 1005.01 1004.90 1004.90 1004.96 1005.03 1005.08 1005.07 1005.01 1004.91 1004.79 1004.69 1004.66 1004.72 1004.90 1005.20 1005.62 1006.12 1006.68 1007.26 1007.83 1008.38 1008.88 1009.33 1009.72 1010.05 1010.34 1010.60 1010.83 1011.05 1011.28 1011.52 1011.78 1012.07 1012.36 1012.64 1012.91 1013.15 1013.34 1013.50 1013.64 1013.77 1013.92
1008.15 1007.87 1007.49 1007.04 1006.58 1006.15 1005.79 1005.51 1005.31 1005.18 1005.09 1005.01 1004.93 1004.83 1004.70 1004.56 1004.43 1004.34 1004.30 1004.35 1004.50 1004.75 1005.11 1005.56 1006.09 1006.68 1007.30 1007.92 1008.51 1009.05 1009.53 1009.92 1010.23 1010.47 1010.66 1010.81 1010.97 1011.16 1011.38 1011.66 1011.99 1012.34 1012.70 1013.04 1013.35 1013.63 1013.87 1014.09 1014.30
1008.76 1008.57 1008.29 1007.94 1007.56 1007.17 1006.78 1006.41 1006.06 1005.73 1005.43 1005.15 1004.89 1004.66 1004.46 1004.29 1004.17 1004.10 1004.08 1004.13 1004.26 1004.47 1004.77 1005.17 1005.67 1006.26 1006.91 1007.59 1008.27 1008.90 1009.46 1009.91 1010.24 1010.46 1010.60 1010.69 1010.78 1010.90 1011.09 1011.36 1011.71 1012.12 1012.57 1013.02 1013.45 1013.83 1014.17 1014.48 1014.74
1009.53 1009.49 1009.37 1009.16 1008.88 1008.52 1008.09 1007.59 1007.05 1006.47 1005.91 1005.37 1004.91 1004.53 1004.24 1004.06 1003.96 1003.94 1003.98 1004.07 1004.20 1004.39 1004.66 1005.01 1005.48 1006.05 1006.70 1007.43 1008.17 1008.87 1009.49 1009.99 1010.33 1010.54 1010.64 1010.67 1010.69 1010.75 1010.90 1011.16 1011.53 1011.99 1012.51 1013.05 1013.58 1014.07 1014.50 1014.87 1015.18
1010.36 1010.50 1010.57 1010.54 1010.37 1010.05 1009.56 1008.91 1008.14 1007.28 1006.41 1005.60 1004.90 1004.37 1004.00 1003.81 1003.77 1003.83 1003.96 1004.12 1004.31 1004.51 1004.76 1005.09 1005.51 1006.05 1006.69 1007.43 1008.19 1008.93 1009.59 1010.10 1010.46 1010.65 1010.71 1010.69 1010.66 1010.68 1010.79 1011.05 1011.43 1011.93 1012.50 1013.11 1013.71 1014.27 1014.76 1015.18 1015.53
1011.07 1011.42 1011.70 1011.85 1011.80 1011.52 1010.97 1010.17 1009.15 1008.00 1006.83 1005.74 1004.81 1004.12 1003.69 1003.51 1003.54 1003.72 1003.98 1004.26 1004.53 1004.79 1005.05 1005.35 1005.74 1006.23 1006.84 1007.54 1008.30 1009.03 1009.69 1010.20 1010.54 1010.72 1010.75 1010.70 1010.64 1010.63 1010.73 1010.97 1011.36 1011.88 1012.49 1013.13 1013.77 1014.38 1014.91 1015.37 1015.74
1011.52 1012.07 1012.56 1012.88 1012.96 1012.71 1012.11 1011.17 1009.93 1008.52 1007.07 1005.73 1004.60 1003.77 1003.30 1003.15 1003.28 1003.60 1004.01 1004.44 1004.82 1005.16 1005.45 1005.75 1006.10 1006.54 1007.09 1007.73 1008.42 1009.11 1009.73 1010.22 1010.54 1010.69 1010.71 1010.65 1010.58 1010.56 1010.66 1010.90 1011.30 1011.82 1012.43 1013.08 1013.73 1014.34 1014.89 1015.36 1015.75
1011.64 1012.36 1013.01 1013.49 1013.68 1013.48 1012.84 1011.79 1010.40 1008.78 1007.11 1005.56 1004.28 1003.37 1002.87 1002.77 1003.01 1003.47 1004.04 1004.62 1005.14 1005.56 1005.91 1006.21 1006.52 1006.90 1007.36 1007.91 1008.52 1009.13 1009.69 1010.13 1010.41 1010.55 1010.57 1010.51 1010.45 1010.45 1010.56 1010.82 1011.21 1011.73 1012.32 1012.95 1013.57 1014.16 1014.69 1015.15 1015.55
1011.42 1012.26 1013.05 1013.65 1013.92 1013.77 1013.14 1012.04 1010.54 1008.80 1007.00 1005.33 1003.96 1003.00 1002.50 1002.46 1002.79 1003.38 1004.10 1004.81 1005.44 1005.95 1006.34 1006.64 1006.92 1007.23 1007.61 1008.06 1008.56 1009.08 1009.55 1009.93 1010.19 1010.31 1010.33 1010.30 1010.27 1010.30 1010.44 1010.71 1011.10 1011.59 1012.15 1012.73 1013.30 1013.84 1014.33 1014.77 1015.17
1010.98 1011.87 1012.73 1013.40 1013.75 1013.65 1013.06 1011.97 1010.46 1008.69 1006.85 1005.14 1003.74 1002.77 1002.30 1002.30 1002.70 1003.38 1004.19 1004.99 1005.70 1006.27 1006.69 1006.99 1007.24 1007.48 1007.77 1008.13 1008.53 1008.95 1009.35 1009.67 1009.89 1010.01 1010.05 1010.05 1010.06 1010.13 1010.30 1010.59 1010.97 1011.44 1011.95 1012.47 1012.97 1013.45 1013.88 1014.28 1014.65
1010.47 1011.34 1012.21 1012.91 1013.30 1013.26 1012.73 1011.71 1010.28 1008.56 1006.77 1005.11 1003.74 1002.80 1002.35 1002.37 1002.80 1003.50 1004.33 1005.17 1005.91 1006.49 1006.91 1007.21 1007.42 1007.61 1007.84 1008.11 1008.43 1008.78 1009.10 1009.37 1009.57 1009.69 1009.76 1009.80 1009.85 1009.97 1010.17 1010.48 1010.86 1011.29 1011.76 1012.21 1012.64 1013.03 1013.40 1013.74 1014.09
1010.07 1010.85 1011.66 1012.34 1012.75 1012.78 1012.34 1011.44 1010.14 1008.56 1006.89 1005.33 1004.04 1003.13 1002.69 1002.69 1003.08 1003.74 1004.52 1005.31 1006.01 1006.57 1006.97 1007.24 1007.43 1007.60 1007.78 1008.01 1008.28 1008.57 1008.85 1009.09 1009.28 1009.41 1009.49 1009.57 1009.67 1009.83 1010.07 1010.39 1010.77 1011.18 1011.60 1011.99 1012.35 1012.67 1012.97 1013.25 1013.56
1009.90 1010.55 1011.25 1011.88 1012.28 1012.36 1012.03 1011.27 1010.15 1008.75 1007.26 1005.83 1004.63 1003.76 1003.30 1003.24 1003.52 1004.06 1004.71 1005.39 1005.99 1006.48 1006.83 1007.08 1007.25 1007.41 1007.59 1007.81 1008.07 1008.34 1008.61 1008.85 1009.03 1009.17 1009.28 1009.39 1009.53 1009.72 1009.98 1010.32 1010.69 1011.09 1011.48 1011.83 1012.14 1012.40 1012.63 1012.87 1013.12
1010.06 1010.54 1011.11 1011.64 1012.02 1012.13 1011.90 1011.30 1010.36 1009.16 1007.85 1006.57 1005.45 1004.60 1004.09 1003.91 1004.04 1004.38 1004.85 1005.35 1005.81 1006.20 1006.49 1006.71 1006.89 1007.07 1007.28 1007.52 1007.80 1008.09 1008.38 1008.62 1008.82 1008.97 1009.10 1009.23 1009.40 1009.61 1009.90 1010.24 1010.62 1011.02 1011.39 1011.72 1012.00 1012.22 1012.42 1012.61 1012.83
1010.53 1010.85 1011.27 1011.70 1012.02 1012.15 1012.00 1011.53 1010.76 1009.75 1008.61 1007.44 1006.39 1005.53 1004.93 1004.60 1004.53 1004.65 1004.89 1005.18 1005.48 1005.74 1005.97 1006.17 1006.37 1006.59 1006.85 1007.16 1007.49 1007.83 1008.14 1008.41 1008.62 1008.79 1008.93 1009.07 1009.24 1009.47 1009.76 1010.12 1010.51 1010.91 1011.29 1011.63 1011.91 1012.13 1012.31 1012.48 1012.67
1011.24 1011.42 1011.71 1012.03 1012.30 1012.42 1012.31 1011.94 1011.30 1010.43 1009.41 1008.34 1007.31 1006.41 1005.70 1005.21 1004.92 1004.80 1004.81 1004.90 1005.03 1005.18 1005.35 1005.53 1005.76 1006.04 1006.38 1006.75 1007.15 1007.54 1007.89 1008.19 1008.42 1008.59 1008.73 1008.87 1009.04 1009.26 1009.55 1009.91 1010.32 1010.74 1011.15 1011.51 1011.81 1012.05 1012.25 1012.42 1012.59
Thickness
5851 5856 5853 5839 5812 5802 5797 5809 5820 5820 5825 5835 5840 5838 5826 5815 5805 5791 5819 5834 5831 5824 5816 5811 5807 5802 5798 5794 5790 5786 5783 5780 5778 5776 5774 5771 5769 5766 5764 5762 5761 5760 5760 5759 5758 5758 5759 5762 5765
5853 5858 5846 5825 5796 5786 5793 5812 5815 5820 5830 5841 5841 5837 5826 5819 5824 5818 5824 5831 5830 5824 5816 5812 5806 5802 5798 5793 5789 5786 5782 5779 5776 5773 5771 5769 5767 5764 5762 5761 5759 5759 5758 5757 5756 5756 5756 5758 5761
5850 5852 5832 5815 5802 5795 5798 5816 5821 5830 5838 5838 5834 5833 5823 5818 5827 5823 5827 5830 5829 5824 5817 5811 5806 5801 5797 5793 5789 5785 5781 5778 5774 5771 5769 5766 5764 5762 5760 5759 5758 5757 5756 5756 5755 5755 5755 5756 5758
5849 5840 5831 5811 5802 5815 5820 5825 5831 5828 5834 5838 5834 5823 5822 5830 5831 5829 5830 5831 5826 5821 5816 5809 5805 5800 5797 5792 5788 5785 5781 5777 5773 5770 5767 5764 5761 5759 5758 5757 5756 5755 5754 5754 5754 5754 5754 5754 5755
5845 5826 5809 5801 5810 5824 5834 5838 5837 5829 5828 5832 5830 5816 5813 5827 5833 5830 5829 5828 5822 5819 5814 5807 5803 5799 5795 5791 5788 5784 5780 5776 5772 5768 5765 5762 5759 5757 5756 5754 5753 5753 5752 5752 5752 5753 5752 5752 5753
5827 5822 5792 5786 5808 5825 5836 5842 5839 5832 5832 5834 5830 5817 5814 5829 5828 5826 5827 5825 5822 5817 5813 5806 5801 5798 5794 5790 5786 5782 5778 5774 5770 5766 5763 5760 5757 5755 5753 5752 5751 5751 5750 5750 5750 5750 5750 5750 5751
5815 5806 5791 5796 5808 5817 5833 5845 5838 5833 5831 5834 5836 5818 5817 5825 5827 5828 5825 5823 5821 5817 5812 5806 5801 5797 5792 5789 5785 5781 5777 5772 5768 5765 5761 5757 5754 5752 5750 5749 5749 5748 5748 5747 5747 5747 5748 5748 5749
5826 5813 5805 5806 5808 5814 5837 5842 5842 5836 5833 5844 5842 5820 5813 5823 5831 5829 5824 5821 5819 5816 5813 5809 5804 5798 5793 5787 5783 5779 5774 5770 5767 5762 5758 5755 5752 5749 5748 5747 5746 5746 5745 5744 5744 5745 5745 5746 5748
5828 5805 5796 5806 5813 5820 5837 5835 5841 5846 5842 5840 5841 5833 5831 5833 5832 5824 5818 5816 5815 5814 5813 5810 5806 5801 5795 5788 5782 5777 5772 5768 5764 5760 5757 5753 5750 5748 5745 5744 5743 5743 5742 5742 5742 5743 5743 5744 5746
5819 5797 5801 5820 5831 5830 5835 5834 5836 5836 5830 5830 5832 5834 5835 5831 5825 5818 5813 5810 5810 5810 5812 5811 5806 5801 5796 5790 5781 5776 5771 5767 5763 5760 5756 5753 5751 5749 5745 5742 5740 5739 5739 5740 5740 5741 5741 5741 5743
5819 5808 5820 5830 5839 5839 5834 5834 5838 5828 5820 5828 5827 5828 5829 5825 5821 5817 5815 5814 5812 5813 5812 5811 5807 5802 5796 5789 5781 5776 5771 5766 5764 5761 5757 5755 5752 5747 5742 5740 5738 5737 5737 5738 5739 5739 5740 5741 5744
5816 5820 5828 5831 5840 5835 5832 5835 5833 5829 5829 5842 5842 5837 5830 5823 5820 5818 5816 5815 5815 5812 5810 5811 5809 5802 5796 5789 5783 5777 5772 5768 5765 5762 5759 5756 5753 5749 5744 5741 5738 5738 5737 5738 5738 5739 5741 5743 5744
5812 5816 5828 5833 5835 5833 5833 5831 5830 5831 5842 5846 5844 5837 5829 5825 5824 5824 5823 5821 5817 5811 5808 5808 5807 5802 5797 5790 5784 5779 5775 5771 5767 5763 5760 5757 5753 5749 5746 5744 5740 5740 5739 5738 5739 5739 5739 5740 5740
5813 5818 5822 5827 5829 5831 5825 5827 5827 5828 5841 5840 5836 5832 5830 5827 5826 5823 5822 5819 5816 5813 5809 5808 5805 5802 5798 5790 5785 5781 5776 5772 5769 5764 5760 5757 5753 5749 5746 5743 5740 5740 5739 5738 5737 5736 5735 5735 5733
5817 5807 5809 5818 5823 5826 5823 5812 5820 5833 5838 5833 5831 5831 5830 5828 5828 5824 5823 5821 5819 5815 5812 5808 5804 5802 5797 5791 5786 5782 5777 5773 5768 5764 5760 5757 5753 5750 5746 5742 5738 5738 5738 5736 5735 5734 5732 5729 5728
5805 5796 5789 5810 5821 5824 5810 5793 5819 5836 5831 5824 5826 5827 5825 5827 5828 5829 5828 5824 5822 5817 5813 5809 5806 5800 5795 5791 5785 5781 5777 5773 5768 5763 5760 5757 5753 5750 5746 5742 5738 5737 5736 5735 5732 5730 5727 5724 5724
5786 5778 5782 5798 5817 5816 5805 5795 5817 5829 5825 5820 5822 5823 5821 5822 5826 5828 5829 5827 5823 5818 5813 5808 5805 5799 5794 5789 5784 5779 5775 5771 5766 5762 5758 5755 5753 5750 5746 5741 5738 5736 5735 5732 5729 5726 5724 5720 5718
5762 5768 5773 5775 5787 5791 5786 5792 5810 5820 5818 5815 5817 5820 5820 5819 5821 5827 5828 5826 5822 5818 5813 5807 5803 5798 5792 5786 5780 5774 5770 5767 5763 5759 5756 5754 5751 5749 5746 5741 5737 5736 5732 5728 5726 5722 5720 5718 5715
5765 5764 5765 5769 5773 5771 5770 5777 5795 5809 5809 5808 5810 5814 5817 5820 5825 5826 5824 5821 5816 5812 5808 5803 5797 5793 5788 5781 5773 5766 5761 5759 5758 5755 5754 5752 5750 5747 5744 5739 5735 5733 5729 5725 5723 5719 5715 5712 5712
5756 5750 5750 5756 5760 5759 5758 5765 5784 5795 5799 5803 5805 5809 5814 5817 5820 5817 5815 5812 5808 5803 5800 5797 5792 5788 5783 5778 5772 5766 5760 5756 5754 5752 5750 5748 5745 5743 5742 5737 5732 5729 5725 5722 5719 5715 5709 5707 5707
5741 5732 5730 5729 5740 5748 5741 5746 5766 5785 5793 5800 5807 5810 5812 5813 5810 5807 5805 5802 5799 5794 5791 5788 5786 5782 5777 5773 5767 5761 5755 5750 5747 5744 5743 5743 5741 5739 5737 5733 5729 5725 5721 5717 5714 5711 5706 5699 5701
5727 5735 5728 5722 5714 5710 5715 5703 5740 5761 5770 5783 5793 5799 5803 5807 5806 5799 5796 5793 5790 5787 5785 5781 5778 5775 5770 5766 5760 5753 5746 5741 5741 5740 5739 5737 5736 5734 5732 5729 5725 5722 5718 5713 5710 5708 5704 5698 5693
5731 5734 5725 5717 5708 5703 5708 5696 5723 5748 5750 5766 5781 5790 5795 5799 5798 5790 5789 5786 5784 5780 5777 5776 5772 5768 5764 5761 5755 5749 5744 5740 5739 5738 5734 5731 5730 5728 5725 5723 5720 5717 5714 5711 5708 5704 5701 5697 5693
5735 5724 5717 5712 5702 5690 5709 5701 5710 5735 5745 5756 5771 5782 5787 5790 5790 5785 5783 5780 5775 5772 5770 5768 5764 5760 5758 5755 5751 5747 5742 5738 5734 5731 5727 5724 5722 5720 5719 5717 5715 5712 5710 5707 5705 5702 5699 5696 5693
5727 5707 5686 5683 5679 5689 5714 5709 5718 5744 5756 5760 5765 5774 5780 5782 5779 5774 5771 5767 5763 5762 5761 5760 5757 5752 5751 5749 5748 5746 5741 5736 5731 5727 5722 5717 5714 5712 5712 5711 5708 5706 5705 5703 5702 5699 5696 5694 5691
5720 5710 5684 5672 5677 5687 5698 5699 5726 5750 5760 5766 5769 5770 5770 5771 5770 5766 5764 5760 5757 5757 5756 5755 5751 5747 5746 5743 5743 5743 5738 5732 5728 5724 5719 5715 5711 5709 5707 5706 5704 5702 5700 5699 5697 5696 5694 5692 5690
5713 5712 5718 5700 5692 5688 5697 5711 5728 5740 5745 5752 5758 5759 5759 5762 5762 5761 5759 5757 5755 5753 5752 5751 5747 5744 5741 5738 5737 5734 5733 5728 5724 5720 5717 5712 5709 5706 5704 5701 5699 5697 5695 5694 5693 5691 5690 5689 5687
5717 5712 5704 5685 5667 5670 5696 5700 5685 5701 5706 5721 5736 5744 5750 5754 5755 5757 5757 5757 5755 5753 5750 5749 5745 5741 5738 5735 5732 5729 5726 5723 5718 5715 5711 5708 5706 5702 5699 5696 5694 5692 5690 5689 5688 5687 5686 5684 5683
5689 5686 5685 5682 5681 5670 5666 5675 5687 5680 5683 5690 5704 5721 5733 5736 5741 5747 5752 5756 5756 5753 5749 5745 5741 5738 5734 5731 5729 5724 5720 5718 5714 5710 5707 5704 5702 5699 5695 5692 5689 5687 5685 5684 5683 5681 5680 5679 5678
5669 5659 5658 5652 5659 5672 5663 5661 5679 5679 5680 5686 5696 5713 5729 5737 5742 5744 5748 5752 5753 5751 5747 5743 5739 5735 5732 5729 5726 5722 5718 5714 5710 5707 5704 5702 5699 5696 5693 5690 5686 5683 5681 5680 5678 5676 5675 5674 5673